This is the latest recevied weather packets stored in our database for station/object KN6CW-3. If no packets are shown the sender has not sent any weather packets the latest 10 day(s).
| Time | Temp. | Humidity | Pressure | Rain* | Wind** | Luminosity | Snow |
|---|---|---|---|---|---|---|---|
| 1778091948 | 13.33° C | 98% | 1005.7 hPa | 2.29 mm | - | 63 W/m² | - |
| 1778091648 | 13.33° C | 98% | 1005.7 hPa | 2.29 mm | - | 102 W/m² | - |
| 1778091348 | 13.33° C | 98% | 1005.8 hPa | 2.29 mm | - | 77 W/m² | - |
| 1778091047 | 13.33° C | 98% | 1005.8 hPa | 2.29 mm | - | 91 W/m² | - |
| 1778090747 | 13.33° C | 98% | 1005.9 hPa | 2.03 mm | - | 74 W/m² | - |
| 1778090447 | 13.33° C | 98% | 1005.9 hPa | 2.03 mm | - | 60 W/m² | - |
| 1778090147 | 13.33° C | 98% | 1005.9 hPa | 2.29 mm | - | 58 W/m² | - |
| 1778089846 | 13.33° C | 98% | 1005.8 hPa | 2.29 mm | - | 60 W/m² | - |
| 1778089546 | 13.33° C | 98% | 1005.9 hPa | 2.03 mm | - | 51 W/m² | - |
| 1778089246 | 13.33° C | 98% | 1005.8 hPa | 2.03 mm | - | 76 W/m² | - |
| 1778088945 | 13.33° C | 98% | 1005.8 hPa | 2.03 mm | - | 65 W/m² | - |
| 1778088645 | 13.33° C | 98% | 1005.9 hPa | 2.03 mm | - | 65 W/m² | - |
| 1778088345 | 13.33° C | 98% | 1005.9 hPa | 2.03 mm | - | 40 W/m² | - |
| 1778088045 | 13.33° C | 98% | 1006 hPa | 1.78 mm | - | 28 W/m² | - |
| 1778087744 | 13.33° C | 98% | 1005.9 hPa | 1.78 mm | - | 28 W/m² | - |
| 1778087444 | 13.33° C | 98% | 1006 hPa | 1.52 mm | - | 28 W/m² | - |
| 1778087144 | 13.33° C | 98% | 1006.1 hPa | 1.52 mm | - | 32 W/m² | - |
| 1778086844 | 13.33° C | 98% | 1005.9 hPa | 1.52 mm | - | 40 W/m² | - |
| 1778086543 | 13.33° C | 98% | 1005.9 hPa | 1.52 mm | - | 49 W/m² | - |
| 1778086243 | 13.33° C | 98% | 1005.8 hPa | 1.52 mm | - | 44 W/m² | - |
| 1778085943 | 13.33° C | 98% | 1005.8 hPa | 1.78 mm | - | 54 W/m² | - |
| 1778085642 | 13.33° C | 98% | 1005.9 hPa | 1.78 mm | - | 39 W/m² | - |
| 1778085342 | 13.33° C | 98% | 1006.1 hPa | 1.78 mm | - | 39 W/m² | - |
| 1778085042 | 13.33° C | 98% | 1006 hPa | 2.03 mm | - | 28 W/m² | - |
| 1778084741 | 13.33° C | 98% | 1006.1 hPa | 2.54 mm | - | 26 W/m² | - |
* Rain latest hour (hover to see other rain measurements)
** Current wind speed in m/s (hover to see current wind gust speed)